Back to catalog

NOAA 16 DEB

AliveSSO
NORAD 42376·DEBRIS·🇺🇸 United States

Launched Sep 21, 2000 from Vandenberg Space Force Base

Loading…

Next Passes (next 24 hours)

TLE

AgingSource: Space-Track

Epoch: Sep 10, 2026, 01:41 UTC

1 42376U 00055RU  26253.07060169  .00005144  00000-0  22853-2 0  9995
2 42376  98.7525 200.2158 0077026 258.0351 101.2184 14.21819936540532

Track NOAA 16 DEB in real time with AllMySat

Download on the App Store